Malaga, Spain

5:21 AM CEST on June 27, 2017 (GMT +0200)
Malaga

Weather History for LEMG - June, 2013

Change the Weather History Date:

Thursday, June 6, 2013

  Actual Average Record
Temperature  
Mean Temperature 72 °F -  
Max Temperature 81 °F 82 °F 90 °F (2017)
Min Temperature 62 °F 64 °F 59 °F (1997)
Cooling Degree Days 6    
Growing Degree Days 22 (Base 50)    
Moisture  
Dew Point 53 °F    
Average Humidity 58    
Maximum Humidity 88    
Minimum Humidity 29    
Precipitation  
Precipitation 0.00 in 0.01 in - ()
Sea Level Pressure  
Sea Level Pressure 30.00 in    
Wind  
Wind Speed 5 mph ()    
Max Wind Speed 14 mph    
Max Gust Speed -    
Visibility 6.6 miles    
Events      
Averages and records for this station are not official NWS values.
T = Trace of Precipitation, MM = Missing Value Source: Averaged Metar Reports

Daily Weather History Graph

Daily Weather History Graph

Search for Another Location

Airport or City:

Trip Planner

Search our weather history database for the weather conditions in past years. The results will help you decide how hot, cold, wet, or windy it might be!

Date:

Astronomy

Jun. 06, 2013 Rise Set
Actual Time 6:59 AM CEST 9:34 PM CEST
Civil Twilight 6:29 AM CEST 10:04 PM CEST
Nautical Twilight 5:51 AM CEST 10:42 PM CEST
Astronomical Twilight 5:09 AM CEST 11:24 PM CEST
Moon 5:28 AM CEST (6/6) 7:45 PM CEST (6/6)
Length of Visible Light 15h 35m
Length of Day
14h 34m
Waning Crescent, 5% of the Moon is Illuminated
Jun 6
Waning Crescent
Jun 8
New
Jun 16
First Quarter
Jun 23
Full
Jun 30
Last Quarter

Hourly Weather History & Observations

Time (CEST) Temp. Dew Point Humidity Pressure Visibility Wind Dir Wind Speed Gust Speed Precip Events Conditions
12:00 AM 66.2 °F 55.4 °F 68% 29.98 in - SE 4.6 mph - N/A   Clear
12:30 AM 66.2 °F 57.2 °F 73% 29.98 in - ENE 3.5 mph - N/A   Clear
1:00 AM 64.4 °F 57.2 °F 77% 29.98 in - East 6.9 mph - N/A   Clear
1:30 AM 64.4 °F 57.2 °F 77% 29.98 in - ESE 4.6 mph - N/A   Clear
2:00 AM 64 °F 59 °F 77% 30.00 in 9 mi Calm Calm - -   Scattered Clouds
2:00 AM 62.6 °F 57.2 °F 82% 29.98 in 6.2 mi Calm Calm - N/A   Partly Cloudy
2:30 AM 60.8 °F 57.2 °F 88% 29.98 in 6.2 mi WNW 2.3 mph - N/A   Partly Cloudy
3:00 AM 60.8 °F 57.2 °F 88% 29.98 in 6.2 mi WNW 3.5 mph - N/A   Partly Cloudy
3:30 AM 60.8 °F 57.2 °F 88% 29.98 in - Variable 2.3 mph - N/A   Clear
4:00 AM 62.6 °F 57.2 °F 82% 29.98 in - WNW 2.3 mph - N/A   Clear
4:30 AM 60.8 °F 55.4 °F 82% 29.98 in - WNW 5.8 mph - N/A   Clear
5:00 AM 60.8 °F 55.4 °F 82% 29.98 in - NW 4.6 mph - N/A   Clear
5:30 AM 60.8 °F 55.4 °F 82% 29.98 in - NW 5.8 mph - N/A   Clear
6:00 AM 59.0 °F 55.4 °F 88% 29.98 in - WNW 4.6 mph - N/A   Clear
6:30 AM 60.8 °F 55.4 °F 82% 29.98 in - NW 5.8 mph - N/A   Clear
7:00 AM 60.8 °F 55.4 °F 82% 29.98 in 6.2 mi West 3.5 mph - N/A   Partly Cloudy
7:30 AM 60.8 °F 53.6 °F 77% 29.98 in 6.2 mi Calm Calm - N/A   Partly Cloudy
8:00 AM 64 °F 55 °F 65% 30.01 in 9 mi West 5.8 mph - -   Scattered Clouds
8:00 AM 62.6 °F 55.4 °F 77% 30.01 in 6.2 mi West 5.8 mph - N/A   Partly Cloudy
8:30 AM 64.4 °F 57.2 °F 77% 30.01 in 6.2 mi Calm Calm - N/A   Partly Cloudy
9:00 AM 66.2 °F 57.2 °F 73% 30.01 in 6.2 mi Calm Calm - N/A   Partly Cloudy
9:30 AM 68.0 °F 53.6 °F 60% 30.01 in 6.2 mi West 9.2 mph - N/A   Partly Cloudy
10:00 AM 69.8 °F 55.4 °F 60% 30.01 in 6.2 mi West 9.2 mph - N/A   Partly Cloudy
10:30 AM 71.6 °F 53.6 °F 53% 30.04 in 6.2 mi West 5.8 mph - N/A   Partly Cloudy
11:00 AM 69.8 °F 57.2 °F 64% 30.04 in 6.2 mi SE 5.8 mph - N/A   Partly Cloudy
11:30 AM 71.6 °F 55.4 °F 57% 30.04 in 6.2 mi SE 8.1 mph - N/A   Partly Cloudy
12:00 PM 73.4 °F 55.4 °F 53% 30.04 in 6.2 mi SE 8.1 mph - N/A   Partly Cloudy
12:30 PM 75.2 °F 53.6 °F 47% 30.04 in 6.2 mi SSE 8.1 mph - N/A   Partly Cloudy
1:00 PM 75.2 °F 50.0 °F 41% 30.04 in - SSE 8.1 mph - N/A   Clear
1:30 PM 77.0 °F 53.6 °F 44% 30.04 in 6.2 mi SSE 5.8 mph - N/A   Partly Cloudy
2:00 PM 78 °F 53 °F 32% 30.04 in 16 mi SE 10.4 mph - -   Scattered Clouds
2:00 PM 77.0 °F 53.6 °F 44% 30.04 in 6.2 mi SE 10.4 mph - N/A   Partly Cloudy
2:30 PM 77.0 °F 51.8 °F 41% 30.01 in 6.2 mi SSE 12.7 mph - N/A   Partly Cloudy
3:00 PM 78.8 °F 51.8 °F 39% 30.01 in 6.2 mi South 12.7 mph - N/A   Partly Cloudy
3:30 PM 78.8 °F 51.8 °F 39% 30.01 in 6.2 mi South 12.7 mph - N/A   Partly Cloudy
4:00 PM 78.8 °F 48.2 °F 34% 30.01 in 6.2 mi South 13.8 mph - N/A   Partly Cloudy
4:30 PM 80.6 °F 48.2 °F 32% 30.01 in 6.2 mi South 8.1 mph - N/A   Partly Cloudy
5:00 PM 80.6 °F 48.2 °F 32% 30.01 in 6.2 mi South 9.2 mph - N/A   Partly Cloudy
5:30 PM 78.8 °F 48.2 °F 34% 30.01 in 6.2 mi South 9.2 mph - N/A   Partly Cloudy
6:00 PM 78.8 °F 50.0 °F 36% 29.98 in 6.2 mi South 12.7 mph - N/A   Partly Cloudy
6:30 PM 78.8 °F 50.0 °F 36% 29.98 in 6.2 mi SSE 10.4 mph - N/A   Partly Cloudy
7:00 PM 78.8 °F 50.0 °F 36% 29.98 in 6.2 mi SSE 10.4 mph - N/A   Partly Cloudy
7:30 PM 77.0 °F 50.0 °F 39% 29.98 in 6.2 mi South 9.2 mph - N/A   Partly Cloudy
8:00 PM 79 °F 52 °F 29% 29.99 in 22 mi SSE 6.9 mph - -   Scattered Clouds
8:00 PM 77.0 °F 48.2 °F 36% 29.98 in 6.2 mi SSE 6.9 mph - N/A   Partly Cloudy
8:30 PM 75.2 °F 50.0 °F 41% 29.98 in 6.2 mi SSE 6.9 mph - N/A   Partly Cloudy
9:00 PM 73.4 °F 48.2 °F 41% 29.98 in 6.2 mi ESE 9.2 mph - N/A   Partly Cloudy
9:30 PM 75.2 °F 44.6 °F 34% 29.98 in 6.2 mi SSW 5.8 mph - N/A   Partly Cloudy
10:00 PM 71.6 °F 51.8 °F 50% 29.98 in 6.2 mi SW 2.3 mph - N/A   Partly Cloudy
10:30 PM 68.0 °F 53.6 °F 60% 30.01 in - Variable 2.3 mph - N/A   Clear
11:00 PM 68.0 °F 53.6 °F 60% 30.01 in - NNW 3.5 mph - N/A   Clear
11:30 PM 68.0 °F 51.8 °F 56% 30.04 in - Variable 2.3 mph - N/A   Clear